Year,Month,Day,Hour,Minute,Value (Times are PST for temperature in C)
2009,09,26,00,00,8.80
2009,09,26,00,01,8.80
2009,09,26,00,02,8.80
2009,09,26,00,03,8.70
2009,09,26,00,04,8.70
2009,09,26,00,05,8.70
2009,09,26,00,06,8.70
2009,09,26,00,07,8.70
2009,09,26,00,08,8.70
2009,09,26,00,09,8.70
2009,09,26,00,10,8.70
2009,09,26,00,11,8.70
2009,09,26,00,12,8.70
2009,09,26,00,13,8.70
2009,09,26,00,14,8.70
2009,09,26,00,15,8.70
2009,09,26,00,16,8.70
2009,09,26,00,17,8.70
2009,09,26,00,18,8.70
2009,09,26,00,19,8.70
2009,09,26,00,20,8.70
2009,09,26,00,21,8.70
2009,09,26,00,22,8.70
2009,09,26,00,23,8.70
2009,09,26,00,24,8.70
2009,09,26,00,25,8.70
2009,09,26,00,26,8.70
2009,09,26,00,27,8.70
2009,09,26,00,28,8.70
2009,09,26,00,29,8.70
2009,09,26,00,30,8.70
2009,09,26,00,31,8.70
2009,09,26,00,32,8.70
2009,09,26,00,33,8.70
2009,09,26,00,34,8.70
2009,09,26,00,35,8.80
2009,09,26,00,36,8.80
2009,09,26,00,37,8.80
2009,09,26,00,38,8.80
2009,09,26,00,39,8.80
2009,09,26,00,40,8.80
2009,09,26,00,41,8.80
2009,09,26,00,42,8.80
2009,09,26,00,43,8.80
2009,09,26,00,44,8.80
2009,09,26,00,45,8.80
2009,09,26,00,46,8.80
2009,09,26,00,47,8.80
2009,09,26,00,48,8.80
2009,09,26,00,49,8.80
2009,09,26,00,50,8.80
2009,09,26,00,51,8.80
2009,09,26,00,52,8.80
2009,09,26,00,53,8.80
2009,09,26,00,54,8.80
2009,09,26,00,55,8.80
2009,09,26,00,56,8.70
2009,09,26,00,57,8.70
2009,09,26,00,58,8.70
2009,09,26,00,59,8.70
2009,09,26,01,00,8.70
2009,09,26,01,01,8.70
2009,09,26,01,02,8.70
2009,09,26,01,03,8.70
2009,09,26,01,04,8.70
2009,09,26,01,05,8.70
2009,09,26,01,06,8.70
2009,09,26,01,07,8.70
2009,09,26,01,08,8.70
2009,09,26,01,09,8.70
2009,09,26,01,10,8.70
2009,09,26,01,11,8.70
2009,09,26,01,12,8.70
2009,09,26,01,13,8.70
2009,09,26,01,14,8.70
2009,09,26,01,15,8.70
2009,09,26,01,16,8.70
2009,09,26,01,17,8.70
2009,09,26,01,18,8.70
2009,09,26,01,19,8.70
2009,09,26,01,20,8.70
2009,09,26,01,21,8.70
2009,09,26,01,22,8.70
2009,09,26,01,23,8.70
2009,09,26,01,24,8.70
2009,09,26,01,25,8.70
2009,09,26,01,26,8.70
2009,09,26,01,27,8.70
2009,09,26,01,28,8.70
2009,09,26,01,29,8.70
2009,09,26,01,30,8.70
2009,09,26,01,31,8.70
2009,09,26,01,32,8.60
2009,09,26,01,33,8.60
2009,09,26,01,34,8.60
2009,09,26,01,35,8.60
2009,09,26,01,36,8.60
2009,09,26,01,37,8.60
2009,09,26,01,38,8.50
2009,09,26,01,39,8.50
2009,09,26,01,40,8.50
2009,09,26,01,41,8.50
2009,09,26,01,42,8.50
2009,09,26,01,43,8.50
2009,09,26,01,44,8.50
2009,09,26,01,45,8.50
2009,09,26,01,46,8.50
2009,09,26,01,47,8.50
2009,09,26,01,48,8.50
2009,09,26,01,49,8.50
2009,09,26,01,50,8.50
2009,09,26,01,51,8.60
2009,09,26,01,52,8.60
2009,09,26,01,53,8.60
2009,09,26,01,54,8.60
2009,09,26,01,55,8.60
2009,09,26,01,56,8.70
2009,09,26,01,57,8.70
2009,09,26,01,58,8.70
2009,09,26,01,59,8.70
2009,09,26,02,00,8.70
2009,09,26,02,01,8.70
2009,09,26,02,02,8.80
2009,09,26,02,03,8.80
2009,09,26,02,04,8.80
2009,09,26,02,05,8.80
2009,09,26,02,06,8.90
2009,09,26,02,07,8.90
2009,09,26,02,08,8.90
2009,09,26,02,09,8.90
2009,09,26,02,10,8.90
2009,09,26,02,11,9.00
2009,09,26,02,12,9.00
2009,09,26,02,13,9.00
2009,09,26,02,14,9.00
2009,09,26,02,15,9.10
2009,09,26,02,16,9.10
2009,09,26,02,17,9.10
2009,09,26,02,18,9.10
2009,09,26,02,19,9.20
2009,09,26,02,20,9.20
2009,09,26,02,21,9.20
2009,09,26,02,22,9.20
2009,09,26,02,23,9.20
2009,09,26,02,24,9.20
2009,09,26,02,25,9.20
2009,09,26,02,26,9.20
2009,09,26,02,27,9.20
2009,09,26,02,28,9.20
2009,09,26,02,29,9.20
2009,09,26,02,30,9.30
2009,09,26,02,31,9.30
2009,09,26,02,32,9.30
2009,09,26,02,33,9.30
2009,09,26,02,34,9.30
2009,09,26,02,35,9.40
2009,09,26,02,36,9.40
2009,09,26,02,37,9.40
2009,09,26,02,38,9.40
2009,09,26,02,39,9.40
2009,09,26,02,40,9.40
2009,09,26,02,41,9.50
2009,09,26,02,42,9.50
2009,09,26,02,43,9.50
2009,09,26,02,44,9.50
2009,09,26,02,45,9.50
2009,09,26,02,46,9.60
2009,09,26,02,47,9.60
2009,09,26,02,48,9.60
2009,09,26,02,49,9.60
2009,09,26,02,50,9.70
2009,09,26,02,51,9.70
2009,09,26,02,52,9.70
2009,09,26,02,53,9.70
2009,09,26,02,54,9.70
2009,09,26,02,55,9.70
2009,09,26,02,56,9.70
2009,09,26,02,57,9.80
2009,09,26,02,58,9.80
2009,09,26,02,59,9.80
2009,09,26,03,00,9.80
2009,09,26,03,01,9.80
2009,09,26,03,02,9.80
2009,09,26,03,03,9.80
2009,09,26,03,04,9.80
2009,09,26,03,05,9.80
2009,09,26,03,06,9.80
2009,09,26,03,07,9.80
2009,09,26,03,08,9.80
2009,09,26,03,09,9.80
2009,09,26,03,10,9.80
2009,09,26,03,11,9.80
2009,09,26,03,12,9.80
2009,09,26,03,13,9.70
2009,09,26,03,14,9.70
2009,09,26,03,15,9.70
2009,09,26,03,16,9.70
2009,09,26,03,17,9.70
2009,09,26,03,18,9.70
2009,09,26,03,19,9.70
2009,09,26,03,20,9.70
2009,09,26,03,21,9.70
2009,09,26,03,22,9.60
2009,09,26,03,23,9.60
2009,09,26,03,24,9.60
2009,09,26,03,25,9.60
2009,09,26,03,26,9.60
2009,09,26,03,27,9.50
2009,09,26,03,28,9.50
2009,09,26,03,29,9.50
2009,09,26,03,30,9.50
2009,09,26,03,31,9.40
2009,09,26,03,32,9.40
2009,09,26,03,33,9.40
2009,09,26,03,34,9.30
2009,09,26,03,35,9.30
2009,09,26,03,36,9.20
2009,09,26,03,37,9.20
2009,09,26,03,38,9.20
2009,09,26,03,39,9.20
2009,09,26,03,40,9.20
2009,09,26,03,41,9.20
2009,09,26,03,42,9.20
2009,09,26,03,43,9.10
2009,09,26,03,44,9.10
2009,09,26,03,45,9.10
2009,09,26,03,46,9.10
2009,09,26,03,47,9.00
2009,09,26,03,48,9.00
2009,09,26,03,49,8.90
2009,09,26,03,50,8.90
2009,09,26,03,51,8.90
2009,09,26,03,52,8.80
2009,09,26,03,53,8.80
2009,09,26,03,54,8.70
2009,09,26,03,55,8.70
2009,09,26,03,56,8.70
2009,09,26,03,57,8.70
2009,09,26,03,58,8.60
2009,09,26,03,59,8.60
2009,09,26,04,00,8.60
2009,09,26,04,01,8.60
2009,09,26,04,02,8.50
2009,09,26,04,03,8.50
2009,09,26,04,04,8.50
2009,09,26,04,05,8.40
2009,09,26,04,06,8.40
2009,09,26,04,07,8.40
2009,09,26,04,08,8.40
2009,09,26,04,09,8.30
2009,09,26,04,10,8.30
2009,09,26,04,11,8.30
2009,09,26,04,12,8.20
2009,09,26,04,13,8.20
2009,09,26,04,14,8.20
2009,09,26,04,15,8.20
2009,09,26,04,16,8.20
2009,09,26,04,17,8.20
2009,09,26,04,18,8.20
2009,09,26,04,19,8.20
2009,09,26,04,20,8.20
2009,09,26,04,21,8.10
2009,09,26,04,22,8.10
2009,09,26,04,23,8.10
2009,09,26,04,24,8.10
2009,09,26,04,25,8.00
2009,09,26,04,26,8.00
2009,09,26,04,27,8.00
2009,09,26,04,28,8.00
2009,09,26,04,29,8.00
2009,09,26,04,30,8.00
2009,09,26,04,31,8.00
2009,09,26,04,32,8.00
2009,09,26,04,33,7.90
2009,09,26,04,34,7.90
2009,09,26,04,35,7.90
2009,09,26,04,36,7.90
2009,09,26,04,37,7.80
2009,09,26,04,38,7.80
2009,09,26,04,39,7.80
2009,09,26,04,40,7.80
2009,09,26,04,41,7.80
2009,09,26,04,42,7.80
2009,09,26,04,43,7.80
2009,09,26,04,44,7.80
2009,09,26,04,45,7.80
2009,09,26,04,46,7.80
2009,09,26,04,47,7.80
2009,09,26,04,48,7.80
2009,09,26,04,49,7.70
2009,09,26,04,50,7.70
2009,09,26,04,51,7.70
2009,09,26,04,52,7.70
2009,09,26,04,53,7.70
2009,09,26,04,54,7.70
2009,09,26,04,55,7.70
2009,09,26,04,56,7.60
2009,09,26,04,57,7.60
2009,09,26,04,58,7.60
2009,09,26,04,59,7.60
2009,09,26,05,00,7.60
2009,09,26,05,01,7.60
2009,09,26,05,02,7.50
2009,09,26,05,03,7.50
2009,09,26,05,04,7.50
2009,09,26,05,05,7.50
2009,09,26,05,06,7.50
2009,09,26,05,07,7.40
2009,09,26,05,08,7.40
2009,09,26,05,09,7.40
2009,09,26,05,10,7.40
2009,09,26,05,11,7.30
2009,09,26,05,12,7.30
2009,09,26,05,13,7.30
2009,09,26,05,14,7.30
2009,09,26,05,15,7.30
2009,09,26,05,16,7.30
2009,09,26,05,17,7.30
2009,09,26,05,18,7.30
2009,09,26,05,19,7.30
2009,09,26,05,20,7.30
2009,09,26,05,21,7.30
2009,09,26,05,22,7.20
2009,09,26,05,23,7.20
2009,09,26,05,24,7.20
2009,09,26,05,25,7.20
2009,09,26,05,26,7.10
2009,09,26,05,27,7.10
2009,09,26,05,28,7.10
2009,09,26,05,29,7.00
2009,09,26,05,30,7.00
2009,09,26,05,31,7.00
2009,09,26,05,32,7.00
2009,09,26,05,33,7.00
2009,09,26,05,34,6.90
2009,09,26,05,35,6.90
2009,09,26,05,36,6.90
2009,09,26,05,37,6.90
2009,09,26,05,38,6.90
2009,09,26,05,39,6.90
2009,09,26,05,40,6.80
2009,09,26,05,41,6.80
2009,09,26,05,42,6.80
2009,09,26,05,43,6.80
2009,09,26,05,44,6.80
2009,09,26,05,45,6.80
2009,09,26,05,46,6.70
2009,09,26,05,47,6.70
2009,09,26,05,48,6.70
2009,09,26,05,49,6.70
2009,09,26,05,50,6.70
2009,09,26,05,51,6.70
2009,09,26,05,52,6.70
2009,09,26,05,53,6.70
2009,09,26,05,54,6.70
2009,09,26,05,55,6.70
2009,09,26,05,56,6.70
2009,09,26,05,57,6.70
2009,09,26,05,58,6.70
2009,09,26,05,59,6.70
2009,09,26,06,00,6.70
2009,09,26,06,01,6.70
2009,09,26,06,02,6.70
2009,09,26,06,03,6.60
2009,09,26,06,04,6.60
2009,09,26,06,05,6.60
2009,09,26,06,06,6.60
2009,09,26,06,07,6.60
2009,09,26,06,08,6.60
2009,09,26,06,09,6.60
2009,09,26,06,10,6.60
2009,09,26,06,11,6.60
2009,09,26,06,12,6.60
2009,09,26,06,13,6.60
2009,09,26,06,14,6.60
2009,09,26,06,15,6.60
2009,09,26,06,16,6.60
2009,09,26,06,17,6.60
2009,09,26,06,18,6.60
2009,09,26,06,19,6.60
2009,09,26,06,20,6.60
2009,09,26,06,21,6.60
2009,09,26,06,22,6.60
2009,09,26,06,23,6.60
2009,09,26,06,24,6.40
2009,09,26,06,25,6.40
2009,09,26,06,26,6.40
2009,09,26,06,27,6.40
2009,09,26,06,28,6.40
2009,09,26,06,29,6.40
2009,09,26,06,30,6.40
2009,09,26,06,31,6.40
2009,09,26,06,32,6.40
2009,09,26,06,33,6.40
2009,09,26,06,34,6.40
2009,09,26,06,35,6.40
2009,09,26,06,36,6.40
2009,09,26,06,37,6.40
2009,09,26,06,38,6.40
2009,09,26,06,39,6.40
2009,09,26,06,40,6.40
2009,09,26,06,41,6.40
2009,09,26,06,42,6.40
2009,09,26,06,43,6.40
2009,09,26,06,44,6.40
2009,09,26,06,45,6.40
2009,09,26,06,46,6.40
2009,09,26,06,47,6.40
2009,09,26,06,48,6.40
2009,09,26,06,49,6.40
2009,09,26,06,50,6.40
2009,09,26,06,51,6.40
2009,09,26,06,52,6.40
2009,09,26,06,53,6.40
2009,09,26,06,54,6.40
2009,09,26,06,55,6.40
2009,09,26,06,56,6.40
2009,09,26,06,57,6.40
2009,09,26,06,58,6.30
2009,09,26,06,59,6.30
2009,09,26,07,00,6.20
2009,09,26,07,01,6.20
2009,09,26,07,02,6.20
2009,09,26,07,03,6.20
2009,09,26,07,04,6.20
2009,09,26,07,05,6.20
2009,09,26,07,06,6.10
2009,09,26,07,07,6.10
2009,09,26,07,08,6.10
2009,09,26,07,09,6.10
2009,09,26,07,10,6.10
2009,09,26,07,11,6.00
2009,09,26,07,12,6.00
2009,09,26,07,13,6.00
2009,09,26,07,14,6.00
2009,09,26,07,15,6.00
2009,09,26,07,16,6.00
2009,09,26,07,17,6.00
2009,09,26,07,18,6.00
2009,09,26,07,19,6.00
2009,09,26,07,20,6.00
2009,09,26,07,21,6.00
2009,09,26,07,22,6.00
2009,09,26,07,23,6.00
2009,09,26,07,24,6.10
2009,09,26,07,25,6.10
2009,09,26,07,26,6.10
2009,09,26,07,27,6.10
2009,09,26,07,28,6.10
2009,09,26,07,29,6.10
2009,09,26,07,30,6.10
2009,09,26,07,31,6.10
2009,09,26,07,32,6.10
2009,09,26,07,33,6.10
2009,09,26,07,34,6.10
2009,09,26,07,35,6.10
2009,09,26,07,36,6.10
2009,09,26,07,37,6.10
2009,09,26,07,38,6.10
2009,09,26,07,39,6.10
2009,09,26,07,40,6.10
2009,09,26,07,41,6.20
2009,09,26,07,42,6.20
2009,09,26,07,43,6.20
2009,09,26,07,44,6.20
2009,09,26,07,45,6.20
2009,09,26,07,46,6.20
2009,09,26,07,47,6.20
2009,09,26,07,48,6.20
2009,09,26,07,49,6.20
2009,09,26,07,50,6.20
2009,09,26,07,51,6.20
2009,09,26,07,52,6.20
2009,09,26,07,53,6.20
2009,09,26,07,54,6.20
2009,09,26,07,55,6.20
2009,09,26,07,56,6.20
2009,09,26,07,57,6.20
2009,09,26,07,58,6.20
2009,09,26,07,59,6.20
2009,09,26,08,00,6.20
2009,09,26,08,01,6.20
2009,09,26,08,02,6.20
2009,09,26,08,03,6.20
2009,09,26,08,04,6.20
2009,09,26,08,05,6.30
2009,09,26,08,06,6.30
2009,09,26,08,07,6.30
2009,09,26,08,08,6.30
2009,09,26,08,09,6.30
2009,09,26,08,10,6.40
2009,09,26,08,11,6.40
2009,09,26,08,12,6.40
2009,09,26,08,13,6.60
2009,09,26,08,14,6.60
2009,09,26,08,15,6.60
2009,09,26,08,16,6.70
2009,09,26,08,17,6.80
2009,09,26,08,18,6.80
2009,09,26,08,19,6.90
2009,09,26,08,20,7.00
2009,09,26,08,21,7.10
2009,09,26,08,22,7.30
2009,09,26,08,23,7.40
2009,09,26,08,24,7.60
2009,09,26,08,25,7.60
2009,09,26,08,26,7.70
2009,09,26,08,27,7.80
2009,09,26,08,28,7.80
2009,09,26,08,29,7.90
2009,09,26,08,30,8.00
2009,09,26,08,31,8.10
2009,09,26,08,32,8.20
2009,09,26,08,33,8.20
2009,09,26,08,34,8.30
2009,09,26,08,35,8.40
2009,09,26,08,36,8.50
2009,09,26,08,37,8.60
2009,09,26,08,38,8.70
2009,09,26,08,39,8.80
2009,09,26,08,40,8.90
2009,09,26,08,41,9.00
2009,09,26,08,42,9.10
2009,09,26,08,43,9.20
2009,09,26,08,44,9.30
2009,09,26,08,45,9.40
2009,09,26,08,46,9.40
2009,09,26,08,47,9.50
2009,09,26,08,48,9.60
2009,09,26,08,49,9.70
2009,09,26,08,50,9.70
2009,09,26,08,51,9.90
2009,09,26,08,52,9.90
2009,09,26,08,53,10.10
2009,09,26,08,54,10.20
2009,09,26,08,55,10.30
2009,09,26,08,56,10.40
2009,09,26,08,57,10.50
2009,09,26,08,58,10.60
2009,09,26,08,59,10.70
2009,09,26,09,00,10.80
2009,09,26,09,01,10.90
2009,09,26,09,02,11.00
2009,09,26,09,03,11.10
2009,09,26,09,04,11.20
2009,09,26,09,05,11.30
2009,09,26,09,06,11.40
2009,09,26,09,07,11.60
2009,09,26,09,08,11.70
2009,09,26,09,09,11.80
2009,09,26,09,10,12.00
2009,09,26,09,11,12.10
2009,09,26,09,12,12.20
2009,09,26,09,13,12.40
2009,09,26,09,14,12.50
2009,09,26,09,15,12.70
2009,09,26,09,16,12.80
2009,09,26,09,17,13.00
2009,09,26,09,18,13.20
2009,09,26,09,19,13.30
2009,09,26,09,20,13.40
2009,09,26,09,21,13.50
2009,09,26,09,22,13.60
2009,09,26,09,23,13.70
2009,09,26,09,24,13.80
2009,09,26,09,25,13.90
2009,09,26,09,26,14.10
2009,09,26,09,27,14.20
2009,09,26,09,28,14.40
2009,09,26,09,29,14.50
2009,09,26,09,30,14.70
2009,09,26,09,31,14.80
2009,09,26,09,32,15.00
2009,09,26,09,33,15.10
2009,09,26,09,34,15.30
2009,09,26,09,35,15.40
2009,09,26,09,36,15.50
2009,09,26,09,37,15.70
2009,09,26,09,38,15.80
2009,09,26,09,39,15.80
2009,09,26,09,40,16.00
2009,09,26,09,41,16.10
2009,09,26,09,42,16.10
2009,09,26,09,43,16.20
2009,09,26,09,44,16.30
2009,09,26,09,45,16.40
2009,09,26,09,46,16.50
2009,09,26,09,47,16.60
2009,09,26,09,48,16.70
2009,09,26,09,49,16.80
2009,09,26,09,50,16.90
2009,09,26,09,51,16.80
2009,09,26,09,52,16.80
2009,09,26,09,53,16.80
2009,09,26,09,54,16.80
2009,09,26,09,55,16.70
2009,09,26,09,56,16.70
2009,09,26,09,57,16.70
2009,09,26,09,58,16.70
2009,09,26,09,59,16.70
2009,09,26,10,00,16.60
2009,09,26,10,01,16.70
2009,09,26,10,02,16.70
2009,09,26,10,03,16.70
2009,09,26,10,04,16.70
2009,09,26,10,05,16.70
2009,09,26,10,06,16.80
2009,09,26,10,07,16.80
2009,09,26,10,08,16.90
2009,09,26,10,09,16.90
2009,09,26,10,10,17.00
2009,09,26,10,11,17.10
2009,09,26,10,12,17.10
2009,09,26,10,13,17.20
2009,09,26,10,14,17.30
2009,09,26,10,15,17.40
2009,09,26,10,16,17.50
2009,09,26,10,17,17.50
2009,09,26,10,18,17.60
2009,09,26,10,19,17.60
2009,09,26,10,20,17.70
2009,09,26,10,21,17.60
2009,09,26,10,22,17.60
2009,09,26,10,23,17.50
2009,09,26,10,24,17.50
2009,09,26,10,25,17.50
2009,09,26,10,26,17.60
2009,09,26,10,27,17.60
2009,09,26,10,28,17.70
2009,09,26,10,29,17.70
2009,09,26,10,30,17.70
2009,09,26,10,31,17.70
2009,09,26,10,32,17.80
2009,09,26,10,33,17.90
2009,09,26,10,34,18.00
2009,09,26,10,35,18.10
2009,09,26,10,36,18.20
2009,09,26,10,37,18.20
2009,09,26,10,38,18.10
2009,09,26,10,39,18.10
2009,09,26,10,40,18.10
2009,09,26,10,41,18.20
2009,09,26,10,42,18.20
2009,09,26,10,43,18.30
2009,09,26,10,44,18.30
2009,09,26,10,45,18.20
2009,09,26,10,46,18.30
2009,09,26,10,47,18.40
2009,09,26,10,48,18.50
2009,09,26,10,49,18.50
2009,09,26,10,50,18.60
2009,09,26,10,51,18.70
2009,09,26,10,52,18.70
2009,09,26,10,53,18.70
2009,09,26,10,54,18.70
2009,09,26,10,55,18.70
2009,09,26,10,56,18.60
2009,09,26,10,57,18.60
2009,09,26,10,58,18.60
2009,09,26,10,59,18.70
2009,09,26,11,00,18.70
2009,09,26,11,01,18.70
2009,09,26,11,02,18.80
2009,09,26,11,03,18.90
2009,09,26,11,04,18.80
2009,09,26,11,05,18.80
2009,09,26,11,06,18.80
2009,09,26,11,07,18.80
2009,09,26,11,08,18.70
2009,09,26,11,09,18.70
2009,09,26,11,10,18.70
2009,09,26,11,11,18.70
2009,09,26,11,12,18.70
2009,09,26,11,13,18.60
2009,09,26,11,14,18.60
2009,09,26,11,15,18.60
2009,09,26,11,16,18.70
2009,09,26,11,17,18.60
2009,09,26,11,18,18.60
2009,09,26,11,19,18.50
2009,09,26,11,20,18.40
2009,09,26,11,21,18.40
2009,09,26,11,22,18.40
2009,09,26,11,23,18.50
2009,09,26,11,24,18.50
2009,09,26,11,25,18.50
2009,09,26,11,26,18.60
2009,09,26,11,27,18.60
2009,09,26,11,28,18.70
2009,09,26,11,29,18.90
2009,09,26,11,30,19.10
2009,09,26,11,31,19.20
2009,09,26,11,32,19.30
2009,09,26,11,33,19.50
2009,09,26,11,34,19.60
2009,09,26,11,35,19.60
2009,09,26,11,36,19.60
2009,09,26,11,37,19.40
2009,09,26,11,38,19.20
2009,09,26,11,39,19.00
2009,09,26,11,40,18.90
2009,09,26,11,41,18.90
2009,09,26,11,42,18.90
2009,09,26,11,43,18.90
2009,09,26,11,44,18.90
2009,09,26,11,45,19.00
2009,09,26,11,46,19.00
2009,09,26,11,47,18.90
2009,09,26,11,48,18.90
2009,09,26,11,49,19.00
2009,09,26,11,50,19.10
2009,09,26,11,51,19.10
2009,09,26,11,52,19.20
2009,09,26,11,53,19.20
2009,09,26,11,54,19.30
2009,09,26,11,55,19.30
2009,09,26,11,56,19.30
2009,09,26,11,57,19.30
2009,09,26,11,58,19.40
2009,09,26,11,59,19.50
2009,09,26,12,00,19.60
2009,09,26,12,01,19.60
2009,09,26,12,02,19.70
2009,09,26,12,03,19.80
2009,09,26,12,04,19.90
2009,09,26,12,05,20.10
2009,09,26,12,06,20.20
2009,09,26,12,07,20.20
2009,09,26,12,08,20.20
2009,09,26,12,09,20.20
2009,09,26,12,10,20.20
2009,09,26,12,11,20.00
2009,09,26,12,12,19.90
2009,09,26,12,13,19.80
2009,09,26,12,14,19.80
2009,09,26,12,15,19.70
2009,09,26,12,16,19.80
2009,09,26,12,17,19.80
2009,09,26,12,18,19.90
2009,09,26,12,19,19.90
2009,09,26,12,20,19.90
2009,09,26,12,21,19.80
2009,09,26,12,22,19.70
2009,09,26,12,23,19.70
2009,09,26,12,24,19.70
2009,09,26,12,25,19.80
2009,09,26,12,26,19.70
2009,09,26,12,27,19.60
2009,09,26,12,28,19.50
2009,09,26,12,29,19.30
2009,09,26,12,30,19.00
2009,09,26,12,31,18.90
2009,09,26,12,32,18.70
2009,09,26,12,33,18.60
2009,09,26,12,34,18.60
2009,09,26,12,35,18.60
2009,09,26,12,36,18.70
2009,09,26,12,37,18.70
2009,09,26,12,38,18.60
2009,09,26,12,39,18.60
2009,09,26,12,40,18.70
2009,09,26,12,41,18.60
2009,09,26,12,42,18.50
2009,09,26,12,43,18.50
2009,09,26,12,44,18.50
2009,09,26,12,45,18.50
2009,09,26,12,46,18.60
2009,09,26,12,47,18.70
2009,09,26,12,48,18.70
2009,09,26,12,49,18.70
2009,09,26,12,50,18.60
2009,09,26,12,51,18.60
2009,09,26,12,52,18.60
2009,09,26,12,53,18.70
2009,09,26,12,54,18.70
2009,09,26,12,55,18.70
2009,09,26,12,56,18.70
2009,09,26,12,57,18.70
2009,09,26,12,58,18.70
2009,09,26,12,59,18.70
2009,09,26,13,00,18.60
2009,09,26,13,01,18.60
2009,09,26,13,02,18.50
2009,09,26,13,03,18.30
2009,09,26,13,04,18.20
2009,09,26,13,05,18.20
2009,09,26,13,06,18.20
2009,09,26,13,07,18.10
2009,09,26,13,08,17.90
2009,09,26,13,09,17.90
2009,09,26,13,10,17.90
2009,09,26,13,11,17.90
2009,09,26,13,12,17.80
2009,09,26,13,13,17.70
2009,09,26,13,14,17.60
2009,09,26,13,15,17.50
2009,09,26,13,16,17.40
2009,09,26,13,17,17.30
2009,09,26,13,18,17.30
2009,09,26,13,19,17.30
2009,09,26,13,20,17.30
2009,09,26,13,21,17.30
2009,09,26,13,22,17.30
2009,09,26,13,23,17.40
2009,09,26,13,24,17.40
2009,09,26,13,25,17.50
2009,09,26,13,26,17.60
2009,09,26,13,27,17.60
2009,09,26,13,28,17.60
2009,09,26,13,29,17.70
2009,09,26,13,30,17.70
2009,09,26,13,31,17.70
2009,09,26,13,32,17.70
2009,09,26,13,33,17.70
2009,09,26,13,34,17.70
2009,09,26,13,35,17.70
2009,09,26,13,36,17.70
2009,09,26,13,37,17.70
2009,09,26,13,38,17.70
2009,09,26,13,39,17.80
2009,09,26,13,40,17.80
2009,09,26,13,41,17.90
2009,09,26,13,42,17.90
2009,09,26,13,43,18.00
2009,09,26,13,44,18.10
2009,09,26,13,45,17.90
2009,09,26,13,46,17.90
2009,09,26,13,47,17.90
2009,09,26,13,48,17.80
2009,09,26,13,49,17.80
2009,09,26,13,50,17.70
2009,09,26,13,51,17.80
2009,09,26,13,52,17.80
2009,09,26,13,53,17.80
2009,09,26,13,54,17.90
2009,09,26,13,55,18.00
2009,09,26,13,56,18.10
2009,09,26,13,57,18.20
2009,09,26,13,58,18.20
2009,09,26,13,59,18.20
2009,09,26,14,00,18.20
2009,09,26,14,01,18.20
2009,09,26,14,02,18.20
2009,09,26,14,03,18.30
2009,09,26,14,04,18.30
2009,09,26,14,05,18.30
2009,09,26,14,06,18.30
2009,09,26,14,07,18.20
2009,09,26,14,08,18.20
2009,09,26,14,09,18.30
2009,09,26,14,10,18.30
2009,09,26,14,11,18.30
2009,09,26,14,12,18.40
2009,09,26,14,13,18.40
2009,09,26,14,14,18.50
2009,09,26,14,15,18.50
2009,09,26,14,16,18.60
2009,09,26,14,17,18.60
2009,09,26,14,18,18.60
2009,09,26,14,19,18.60
2009,09,26,14,20,18.60
2009,09,26,14,21,18.70
2009,09,26,14,22,18.70
2009,09,26,14,23,18.60
2009,09,26,14,24,18.60
2009,09,26,14,25,18.50
2009,09,26,14,26,18.40
2009,09,26,14,27,18.40
2009,09,26,14,28,18.40
2009,09,26,14,29,18.50
2009,09,26,14,30,18.50
2009,09,26,14,31,18.50
2009,09,26,14,32,18.50
2009,09,26,14,33,18.40
2009,09,26,14,34,18.40
2009,09,26,14,35,18.50
2009,09,26,14,36,18.50
2009,09,26,14,37,18.50
2009,09,26,14,38,18.50
2009,09,26,14,39,18.60
2009,09,26,14,40,18.60
2009,09,26,14,41,18.70
2009,09,26,14,42,18.60
2009,09,26,14,43,18.50
2009,09,26,14,44,18.50
2009,09,26,14,45,18.50
2009,09,26,14,46,18.50
2009,09,26,14,47,18.50
2009,09,26,14,48,18.50
2009,09,26,14,49,18.50
2009,09,26,14,50,18.40
2009,09,26,14,51,18.40
2009,09,26,14,52,18.30
2009,09,26,14,53,18.20
2009,09,26,14,54,18.20
2009,09,26,14,55,18.20
2009,09,26,14,56,18.20
2009,09,26,14,57,18.20
2009,09,26,14,58,18.20
2009,09,26,14,59,18.20
2009,09,26,15,00,18.30
2009,09,26,15,01,18.30
2009,09,26,15,02,18.30
2009,09,26,15,03,18.20
2009,09,26,15,04,18.20
2009,09,26,15,05,18.20
2009,09,26,15,06,18.20
2009,09,26,15,07,18.20
2009,09,26,15,08,18.20
2009,09,26,15,09,18.20
2009,09,26,15,10,18.20
2009,09,26,15,11,18.30
2009,09,26,15,12,18.30
2009,09,26,15,13,18.30
2009,09,26,15,14,18.30
2009,09,26,15,15,18.20
2009,09,26,15,16,18.20
2009,09,26,15,17,18.20
2009,09,26,15,18,18.20
2009,09,26,15,19,18.20
2009,09,26,15,20,18.20
2009,09,26,15,21,18.40
2009,09,26,15,22,18.50
2009,09,26,15,23,18.50
2009,09,26,15,24,18.40
2009,09,26,15,25,18.30
2009,09,26,15,26,18.20
2009,09,26,15,27,18.20
2009,09,26,15,28,18.20
2009,09,26,15,29,18.10
2009,09,26,15,30,18.00
2009,09,26,15,31,17.90
2009,09,26,15,32,17.90
2009,09,26,15,33,17.90
2009,09,26,15,34,17.80
2009,09,26,15,35,17.70
2009,09,26,15,36,17.80
2009,09,26,15,37,17.80
2009,09,26,15,38,17.80
2009,09,26,15,39,17.80
2009,09,26,15,40,17.80
2009,09,26,15,41,17.80
2009,09,26,15,42,17.80
2009,09,26,15,43,17.80
2009,09,26,15,44,17.80
2009,09,26,15,45,17.90
2009,09,26,15,46,18.00
2009,09,26,15,47,18.10
2009,09,26,15,48,18.20
2009,09,26,15,49,18.30
2009,09,26,15,50,18.40
2009,09,26,15,51,18.50
2009,09,26,15,52,18.50
2009,09,26,15,53,18.40
2009,09,26,15,54,18.30
2009,09,26,15,55,18.20
2009,09,26,15,56,18.20
2009,09,26,15,57,18.20
2009,09,26,15,58,18.20
2009,09,26,15,59,18.20
2009,09,26,16,00,18.20
2009,09,26,16,01,18.10
2009,09,26,16,02,18.10
2009,09,26,16,03,18.10
2009,09,26,16,04,18.10
2009,09,26,16,05,17.90
2009,09,26,16,06,17.90
2009,09,26,16,07,17.90
2009,09,26,16,08,17.90
2009,09,26,16,09,17.90
2009,09,26,16,10,17.80
2009,09,26,16,11,17.70
2009,09,26,16,12,17.70
2009,09,26,16,13,17.80
2009,09,26,16,14,17.80
2009,09,26,16,15,17.90
2009,09,26,16,16,17.90
2009,09,26,16,17,17.90
2009,09,26,16,18,18.00
2009,09,26,16,19,18.00
2009,09,26,16,20,17.90
2009,09,26,16,21,17.90
2009,09,26,16,22,17.90
2009,09,26,16,23,17.80
2009,09,26,16,24,17.70
2009,09,26,16,25,17.70
2009,09,26,16,26,17.70
2009,09,26,16,27,17.70
2009,09,26,16,28,17.70
2009,09,26,16,29,17.70
2009,09,26,16,30,17.70
2009,09,26,16,31,17.70
2009,09,26,16,32,17.80
2009,09,26,16,33,17.80
2009,09,26,16,34,17.90
2009,09,26,16,35,17.90
2009,09,26,16,36,17.90
2009,09,26,16,37,17.90
2009,09,26,16,38,17.90
2009,09,26,16,39,17.90
2009,09,26,16,40,17.80
2009,09,26,16,41,17.80
2009,09,26,16,42,17.70
2009,09,26,16,43,17.70
2009,09,26,16,44,17.70
2009,09,26,16,45,17.80
2009,09,26,16,46,17.80
2009,09,26,16,47,17.80
2009,09,26,16,48,17.80
2009,09,26,16,49,17.80
2009,09,26,16,50,17.80
2009,09,26,16,51,17.80
2009,09,26,16,52,17.90
2009,09,26,16,53,17.90
2009,09,26,16,54,17.90
2009,09,26,16,55,18.00
2009,09,26,16,56,18.10
2009,09,26,16,57,17.90
2009,09,26,16,58,17.90
2009,09,26,16,59,17.90
2009,09,26,17,00,17.90
2009,09,26,17,01,17.80
2009,09,26,17,02,17.80
2009,09,26,17,03,17.70
2009,09,26,17,04,17.70
2009,09,26,17,05,17.60
2009,09,26,17,06,17.60
2009,09,26,17,07,17.60
2009,09,26,17,08,17.60
2009,09,26,17,09,17.60
2009,09,26,17,10,17.60
2009,09,26,17,11,17.70
2009,09,26,17,12,17.70
2009,09,26,17,13,17.80
2009,09,26,17,14,17.80
2009,09,26,17,15,17.90
2009,09,26,17,16,17.90
2009,09,26,17,17,17.90
2009,09,26,17,18,17.90
2009,09,26,17,19,17.90
2009,09,26,17,20,17.90
2009,09,26,17,21,17.90
2009,09,26,17,22,17.90
2009,09,26,17,23,18.00
2009,09,26,17,24,18.10
2009,09,26,17,25,18.10
2009,09,26,17,26,18.10
2009,09,26,17,27,18.00
2009,09,26,17,28,17.90
2009,09,26,17,29,18.00
2009,09,26,17,30,18.10
2009,09,26,17,31,18.10
2009,09,26,17,32,18.00
2009,09,26,17,33,17.90
2009,09,26,17,34,17.90
2009,09,26,17,35,18.00
2009,09,26,17,36,17.90
2009,09,26,17,37,17.90
2009,09,26,17,38,17.90
2009,09,26,17,39,17.90
2009,09,26,17,40,17.90
2009,09,26,17,41,17.90
2009,09,26,17,42,17.90